Location: Asheville, NC
(35.6000°N, 82.5500°W)
Time: 11:45:32
(UTC-04:00)

XW-2D - Pass Details

Date: 17 March 2018
Orbit: 509 x 530 km, 97.5° (Epoch: 21 June)

Event Time Altitude Azimuth Distance (km) Brightness Sun altitude
Rises 06:30:18 0° 35° (NE) 2,666 ? -14.6°
Reaches altitude 10° 06:33:20 10° 62° (ENE) 1,774 ? -14.0°
Maximum altitude 06:35:20 14° 93° (E) 1,546 ? -13.6°
Drops below altitude 10° 06:37:20 10° 125° (SE) 1,770 ? -13.2°
Sets 06:40:20 0° 152° (SSE) 2,655 ? -12.6°
